Time,TemperatureF,DewpointF,PressureIn,WindDirection,WindDirectionDegrees,WindSpeedMPH,WindSpeedGustMPH,Humidity,HourlyPrecipIn,Conditions,Clouds,dailyrainin,SoftwareType,DateUTC
2013-08-07 00:03:00,85.8,62.6,29.75,SW,228,0.0,3.0,46,0.00,,,0.00,meteohub,2013-08-07 05:03:00,
2013-08-07 00:08:00,85.5,62.2,29.75,South,171,0.0,0.0,46,0.00,,,0.00,meteohub,2013-08-07 05:08:00,
2013-08-07 00:13:00,85.3,62.8,29.74,South,171,0.0,4.0,47,0.00,,,0.00,meteohub,2013-08-07 05:13:00,
2013-08-07 00:18:00,85.1,63.1,29.74,South,171,0.0,4.0,48,0.00,,,0.00,meteohub,2013-08-07 05:18:00,
2013-08-07 00:24:00,84.9,63.0,29.75,South,171,0.0,4.0,48,0.00,,,0.00,meteohub,2013-08-07 05:24:00,
2013-08-07 00:29:00,84.9,63.0,29.75,South,171,0.0,4.0,48,0.00,,,0.00,meteohub,2013-08-07 05:29:00,
2013-08-07 00:34:00,84.7,63.0,29.75,South,171,2.0,4.0,48,0.00,,,0.00,meteohub,2013-08-07 05:34:00,
2013-08-07 00:39:00,84.7,63.0,29.75,South,174,1.0,4.0,48,0.00,,,0.00,meteohub,2013-08-07 05:39:00,
2013-08-07 00:44:00,84.6,62.8,29.74,South,186,0.0,8.0,48,0.00,,,0.00,meteohub,2013-08-07 05:44:00,
2013-08-07 00:49:00,84.6,62.8,29.74,SSW,202,0.0,8.0,48,0.00,,,0.00,meteohub,2013-08-07 05:49:00,
2013-08-07 00:54:00,84.6,62.8,29.74,SSW,211,0.0,8.0,48,0.00,,,0.00,meteohub,2013-08-07 05:54:00,
2013-08-07 00:59:00,84.6,63.3,29.75,SW,223,0.0,8.0,49,0.00,,,0.00,meteohub,2013-08-07 05:59:00,
2013-08-07 01:04:00,84.4,63.1,29.75,SW,228,0.0,6.0,49,0.00,,,0.00,meteohub,2013-08-07 06:04:00,
2013-08-07 01:09:00,84.4,63.1,29.75,South,188,0.0,6.0,49,0.00,,,0.00,meteohub,2013-08-07 06:09:00,
2013-08-07 01:14:00,84.0,62.8,29.75,SSW,195,0.0,6.0,49,0.00,,,0.00,meteohub,2013-08-07 06:14:00,
2013-08-07 01:19:00,84.0,63.3,29.74,SSW,194,0.0,7.0,50,0.00,,,0.00,meteohub,2013-08-07 06:19:00,
2013-08-07 01:24:00,83.8,63.1,29.74,South,184,0.0,7.0,50,0.00,,,0.00,meteohub,2013-08-07 06:24:00,
2013-08-07 01:29:00,83.8,63.1,29.74,South,184,0.0,7.0,50,0.00,,,0.00,meteohub,2013-08-07 06:29:00,
2013-08-07 01:34:00,83.8,63.1,29.74,South,184,0.0,0.0,50,0.00,,,0.00,meteohub,2013-08-07 06:34:00,
2013-08-07 01:39:00,83.8,62.6,29.74,South,184,0.0,0.0,49,0.00,,,0.00,meteohub,2013-08-07 06:39:00,
2013-08-07 01:44:00,83.8,62.6,29.74,South,184,0.0,0.0,49,0.00,,,0.00,meteohub,2013-08-07 06:44:00,
2013-08-07 01:49:00,83.8,62.1,29.74,South,184,0.0,1.0,48,0.00,,,0.00,meteohub,2013-08-07 06:49:00,
2013-08-07 01:54:00,83.8,62.1,29.74,South,183,0.0,1.0,48,0.00,,,0.00,meteohub,2013-08-07 06:54:00,
2013-08-07 01:59:00,83.8,62.1,29.73,South,183,0.0,1.0,48,0.00,,,0.00,meteohub,2013-08-07 06:59:00,
2013-08-07 02:04:00,83.8,62.1,29.74,South,183,0.0,0.0,48,0.00,,,0.00,meteohub,2013-08-07 07:04:00,
2013-08-07 02:09:00,83.7,62.4,29.74,SSE,165,0.0,0.0,49,0.00,,,0.00,meteohub,2013-08-07 07:09:00,
2013-08-07 02:14:00,83.5,62.2,29.73,South,177,0.0,4.0,49,0.00,,,0.00,meteohub,2013-08-07 07:14:00,
2013-08-07 02:19:00,83.3,62.1,29.73,South,176,0.0,4.0,49,0.00,,,0.00,meteohub,2013-08-07 07:19:00,
2013-08-07 02:24:00,83.1,62.6,29.73,South,174,0.0,6.0,50,0.00,,,0.00,meteohub,2013-08-07 07:24:00,
2013-08-07 02:29:00,82.9,62.4,29.73,South,174,0.0,6.0,50,0.00,,,0.00,meteohub,2013-08-07 07:29:00,
2013-08-07 02:34:00,82.8,62.2,29.73,South,174,0.0,2.0,50,0.00,,,0.00,meteohub,2013-08-07 07:34:00,
2013-08-07 02:39:00,82.6,62.6,29.73,South,174,0.0,2.0,51,0.00,,,0.00,meteohub,2013-08-07 07:39:00,
2013-08-07 02:44:00,82.2,62.2,29.73,South,174,0.0,0.0,51,0.00,,,0.00,meteohub,2013-08-07 07:44:00,
2013-08-07 02:49:00,82.2,62.2,29.74,West,281,2.0,0.0,51,0.00,,,0.00,meteohub,2013-08-07 07:49:00,
2013-08-07 02:54:00,82.2,62.2,29.74,WNW,290,0.0,7.0,51,0.00,,,0.00,meteohub,2013-08-07 07:54:00,
2013-08-07 02:59:00,82.4,61.9,29.73,SSE,167,0.0,7.0,50,0.00,,,0.00,meteohub,2013-08-07 07:59:00,
2013-08-07 03:04:00,82.8,62.2,29.74,SSE,167,0.0,9.0,50,0.00,,,0.00,meteohub,2013-08-07 08:04:00,
2013-08-07 03:09:00,82.9,62.4,29.75,SSE,167,0.0,9.0,50,0.00,,,0.00,meteohub,2013-08-07 08:09:00,
2013-08-07 03:14:00,82.8,62.2,29.74,SW,219,0.0,9.0,50,0.00,,,0.00,meteohub,2013-08-07 08:14:00,
2013-08-07 03:19:00,82.8,62.2,29.74,SW,219,0.0,6.0,50,0.00,,,0.00,meteohub,2013-08-07 08:19:00,
2013-08-07 03:24:00,82.6,62.1,29.74,SW,217,0.0,6.0,50,0.00,,,0.00,meteohub,2013-08-07 08:24:00,
2013-08-07 03:29:00,82.2,62.2,29.74,SW,217,0.0,6.0,51,0.00,,,0.00,meteohub,2013-08-07 08:29:00,
2013-08-07 03:34:00,82.0,62.1,29.74,SW,217,0.0,0.0,51,0.00,,,0.00,meteohub,2013-08-07 08:34:00,
2013-08-07 03:39:00,81.9,61.9,29.74,SW,217,0.0,0.0,51,0.00,,,0.00,meteohub,2013-08-07 08:39:00,
2013-08-07 03:44:00,81.7,61.9,29.74,SW,217,0.0,0.0,51,0.00,,,0.00,meteohub,2013-08-07 08:44:00,
2013-08-07 03:49:00,81.3,62.1,29.74,SW,221,0.0,0.0,52,0.00,,,0.00,meteohub,2013-08-07 08:49:00,
2013-08-07 03:55:00,81.1,61.9,29.74,SW,222,0.0,5.0,52,0.00,,,0.00,meteohub,2013-08-07 08:55:00,
2013-08-07 04:00:00,81.1,61.9,29.74,SW,222,0.0,5.0,52,0.00,,,0.00,meteohub,2013-08-07 09:00:00,
2013-08-07 04:05:00,81.0,61.7,29.74,SW,222,0.0,5.0,52,0.00,,,0.00,meteohub,2013-08-07 09:05:00,
2013-08-07 04:10:00,81.0,61.7,29.75,SW,222,0.0,0.0,52,0.00,,,0.00,meteohub,2013-08-07 09:10:00,
2013-08-07 04:15:00,80.8,62.1,29.74,SW,222,0.0,0.0,53,0.00,,,0.00,meteohub,2013-08-07 09:15:00,
2013-08-07 04:20:00,80.8,62.1,29.74,SW,222,0.0,0.0,53,0.00,,,0.00,meteohub,2013-08-07 09:20:00,
2013-08-07 04:25:00,80.6,61.9,29.75,SW,222,0.0,0.0,53,0.00,,,0.00,meteohub,2013-08-07 09:25:00,
2013-08-07 04:30:00,80.2,62.1,29.75,SW,222,0.0,0.0,54,0.00,,,0.00,meteohub,2013-08-07 09:30:00,
2013-08-07 04:35:00,80.1,62.4,29.75,SW,222,0.0,0.0,55,0.00,,,0.00,meteohub,2013-08-07 09:35:00,
2013-08-07 04:40:00,79.5,61.9,29.75,SW,222,0.0,0.0,55,0.00,,,0.00,meteohub,2013-08-07 09:40:00,
2013-08-07 04:45:00,79.3,62.2,29.75,SW,222,0.0,0.0,56,0.00,,,0.00,meteohub,2013-08-07 09:45:00,
2013-08-07 04:50:00,79.0,61.9,29.75,SW,222,0.0,0.0,56,0.00,,,0.00,meteohub,2013-08-07 09:50:00,
2013-08-07 04:55:00,78.6,61.5,29.75,SW,222,0.0,0.0,56,0.00,,,0.00,meteohub,2013-08-07 09:55:00,
2013-08-07 05:00:00,78.4,61.9,29.75,SW,221,0.0,0.0,57,0.00,,,0.00,meteohub,2013-08-07 10:00:00,
2013-08-07 05:05:00,78.1,61.5,29.75,SW,221,0.0,0.0,57,0.00,,,0.00,meteohub,2013-08-07 10:05:00,
2013-08-07 05:10:00,77.9,61.9,29.75,SW,221,0.0,0.0,58,0.00,,,0.00,meteohub,2013-08-07 10:10:00,
2013-08-07 05:15:00,78.1,62.1,29.75,SW,221,0.0,0.0,58,0.00,,,0.00,meteohub,2013-08-07 10:15:00,
2013-08-07 05:20:00,78.3,62.2,29.75,SW,221,0.0,0.0,58,0.00,,,0.00,meteohub,2013-08-07 10:20:00,
2013-08-07 05:25:00,78.3,62.2,29.75,SW,221,0.0,0.0,58,0.00,,,0.00,meteohub,2013-08-07 10:25:00,
2013-08-07 05:30:00,78.4,63.0,29.75,SW,221,0.0,0.0,59,0.00,,,0.00,meteohub,2013-08-07 10:30:00,
2013-08-07 05:35:00,78.6,63.1,29.75,SW,221,0.0,0.0,59,0.00,,,0.00,meteohub,2013-08-07 10:35:00,
2013-08-07 05:40:00,78.6,63.5,29.75,SW,221,0.0,0.0,60,0.00,,,0.00,meteohub,2013-08-07 10:40:00,
2013-08-07 05:45:00,78.6,63.5,29.75,SW,221,0.0,0.0,60,0.00,,,0.00,meteohub,2013-08-07 10:45:00,
2013-08-07 05:50:00,78.6,64.0,29.75,SW,221,0.0,0.0,61,0.00,,,0.00,meteohub,2013-08-07 10:50:00,
2013-08-07 05:55:00,78.6,64.0,29.75,SW,221,0.0,0.0,61,0.00,,,0.00,meteohub,2013-08-07 10:55:00,
2013-08-07 06:00:00,78.8,64.8,29.75,SW,221,0.0,0.0,62,0.00,,,0.00,meteohub,2013-08-07 11:00:00,
2013-08-07 06:05:00,79.0,64.4,29.75,SW,221,0.0,0.0,61,0.00,,,0.00,meteohub,2013-08-07 11:05:00,
2013-08-07 06:10:00,79.0,64.8,29.75,SW,221,0.0,0.0,62,0.00,,,0.00,meteohub,2013-08-07 11:10:00,
2013-08-07 06:15:00,79.2,64.9,29.76,SW,221,0.0,0.0,62,0.00,,,0.00,meteohub,2013-08-07 11:15:00,
2013-08-07 06:20:00,79.3,65.1,29.75,SW,221,0.0,0.0,62,0.00,,,0.00,meteohub,2013-08-07 11:20:00,
2013-08-07 06:25:00,79.3,65.1,29.76,SW,221,0.0,0.0,62,0.00,,,0.00,meteohub,2013-08-07 11:25:00,
2013-08-07 06:30:00,79.3,65.1,29.76,SW,221,0.0,0.0,62,0.00,,,0.00,meteohub,2013-08-07 11:30:00,
2013-08-07 06:35:00,79.5,65.3,29.76,SW,221,0.0,0.0,62,0.00,,,0.00,meteohub,2013-08-07 11:35:00,
2013-08-07 06:40:00,79.7,65.1,29.75,SW,221,0.0,0.0,61,0.00,,,0.00,meteohub,2013-08-07 11:40:00,
2013-08-07 06:45:00,79.9,65.7,29.75,SW,221,0.0,0.0,62,0.00,,,0.00,meteohub,2013-08-07 11:45:00,
2013-08-07 06:50:00,79.9,65.7,29.76,SW,221,0.0,0.0,62,0.00,,,0.00,meteohub,2013-08-07 11:50:00,
2013-08-07 06:55:00,79.7,65.5,29.75,SW,221,0.0,0.0,62,0.00,,,0.00,meteohub,2013-08-07 11:55:00,
2013-08-07 07:00:00,79.7,65.5,29.76,SW,221,0.0,0.0,62,0.00,,,0.00,meteohub,2013-08-07 12:00:00,
2013-08-07 07:05:00,79.5,65.3,29.76,SW,221,0.0,3.0,62,0.00,,,0.00,meteohub,2013-08-07 12:05:00,
2013-08-07 07:11:00,79.5,65.3,29.76,SW,221,0.0,3.0,62,0.00,,,0.00,meteohub,2013-08-07 12:11:00,
2013-08-07 07:16:00,79.5,65.3,29.76,SW,221,0.0,0.0,62,0.00,,,0.00,meteohub,2013-08-07 12:16:00,
2013-08-07 07:21:00,79.5,65.8,29.76,SW,221,0.0,0.0,63,0.00,,,0.00,meteohub,2013-08-07 12:21:00,
2013-08-07 07:26:00,79.5,65.8,29.76,SW,221,0.0,0.0,63,0.00,,,0.00,meteohub,2013-08-07 12:26:00,
2013-08-07 07:31:00,79.5,65.8,29.77,SW,221,0.0,0.0,63,0.00,,,0.00,meteohub,2013-08-07 12:31:00,
2013-08-07 07:36:00,79.7,66.0,29.77,SW,221,0.0,0.0,63,0.00,,,0.00,meteohub,2013-08-07 12:36:00,
2013-08-07 07:41:00,79.9,66.6,29.77,SW,221,0.0,0.0,64,0.00,,,0.00,meteohub,2013-08-07 12:41:00,
2013-08-07 07:46:00,80.1,66.7,29.77,SW,221,0.0,0.0,64,0.00,,,0.00,meteohub,2013-08-07 12:46:00,
2013-08-07 07:51:00,80.1,66.4,29.77,SW,221,0.0,0.0,63,0.00,,,0.00,meteohub,2013-08-07 12:51:00,
2013-08-07 07:56:00,80.2,66.6,29.77,SW,221,0.0,1.0,63,0.00,,,0.00,meteohub,2013-08-07 12:56:00,
2013-08-07 08:01:00,80.4,66.7,29.77,SW,221,0.0,1.0,63,0.00,,,0.00,meteohub,2013-08-07 13:01:00,
2013-08-07 08:06:00,80.6,66.4,29.77,WSW,254,1.0,5.0,62,0.00,,,0.00,meteohub,2013-08-07 13:06:00,
2013-08-07 08:11:00,80.8,66.6,29.78,WSW,254,0.0,5.0,62,0.00,,,0.00,meteohub,2013-08-07 13:11:00,
2013-08-07 08:16:00,81.0,66.7,29.78,WSW,254,0.0,5.0,62,0.00,,,0.00,meteohub,2013-08-07 13:16:00,
2013-08-07 08:21:00,81.0,66.7,29.78,WSW,254,0.0,5.0,62,0.00,,,0.00,meteohub,2013-08-07 13:21:00,
2013-08-07 08:26:00,81.1,66.9,29.78,WSW,254,0.0,0.0,62,0.00,,,0.00,meteohub,2013-08-07 13:26:00,
2013-08-07 08:31:00,81.5,66.7,29.78,WSW,254,0.0,0.0,61,0.00,,,0.00,meteohub,2013-08-07 13:31:00,
2013-08-07 08:36:00,81.7,66.9,29.78,WSW,255,0.0,0.0,61,0.00,,,0.00,meteohub,2013-08-07 13:36:00,
2013-08-07 08:41:00,81.9,67.1,29.78,WSW,252,0.0,0.0,61,0.00,,,0.00,meteohub,2013-08-07 13:41:00,
2013-08-07 08:46:00,82.0,67.3,29.78,WSW,252,0.0,3.0,61,0.00,,,0.00,meteohub,2013-08-07 13:46:00,
2013-08-07 08:51:00,82.0,67.3,29.78,WSW,252,1.0,3.0,61,0.00,,,0.00,meteohub,2013-08-07 13:51:00,
2013-08-07 08:56:00,82.2,67.8,29.78,WSW,252,0.0,5.0,62,0.00,,,0.00,meteohub,2013-08-07 13:56:00,
2013-08-07 09:01:00,82.4,67.6,29.78,WSW,252,0.0,5.0,61,0.00,,,0.00,meteohub,2013-08-07 14:01:00,
2013-08-07 09:06:00,82.8,68.0,29.78,WSW,252,0.0,4.0,61,0.00,,,0.00,meteohub,2013-08-07 14:06:00,
2013-08-07 09:11:00,82.9,67.6,29.78,SSW,199,1.0,4.0,60,0.00,,,0.00,meteohub,2013-08-07 14:11:00,
2013-08-07 09:16:00,83.1,67.8,29.78,SW,224,6.0,8.0,60,0.00,,,0.00,meteohub,2013-08-07 14:16:00,
2013-08-07 09:21:00,83.5,68.2,29.78,WSW,243,2.0,8.0,60,0.00,,,0.00,meteohub,2013-08-07 14:21:00,
2013-08-07 09:26:00,83.8,68.5,29.78,SW,217,3.0,10.0,60,0.00,,,0.00,meteohub,2013-08-07 14:26:00,
2013-08-07 09:31:00,84.0,68.2,29.78,WSW,248,12.0,12.0,59,0.00,,,0.00,meteohub,2013-08-07 14:31:00,
2013-08-07 09:36:00,84.4,68.0,29.79,SW,227,10.0,16.0,58,0.00,,,0.00,meteohub,2013-08-07 14:36:00,
2013-08-07 09:41:00,84.7,68.4,29.79,SW,232,5.0,16.0,58,0.00,,,0.00,meteohub,2013-08-07 14:41:00,
2013-08-07 09:46:00,84.7,67.8,29.79,WSW,243,3.0,16.0,57,0.00,,,0.00,meteohub,2013-08-07 14:46:00,
2013-08-07 09:51:00,84.6,68.2,29.79,SSW,208,10.0,16.0,58,0.00,,,0.00,meteohub,2013-08-07 14:51:00,
2013-08-07 09:56:00,84.7,67.8,29.79,SSW,213,5.0,16.0,57,0.00,,,0.00,meteohub,2013-08-07 14:56:00,
2013-08-07 10:01:00,85.3,68.9,29.78,SW,221,7.0,16.0,58,0.00,,,0.00,meteohub,2013-08-07 15:01:00,
2013-08-07 10:06:00,85.8,68.4,29.78,SW,227,0.0,16.0,56,0.00,,,0.00,meteohub,2013-08-07 15:06:00,
2013-08-07 10:11:00,86.5,68.0,29.78,SW,225,16.0,16.0,54,0.00,,,0.00,meteohub,2013-08-07 15:11:00,
2013-08-07 10:16:00,86.9,68.2,29.78,SW,234,6.0,14.0,54,0.00,,,0.00,meteohub,2013-08-07 15:16:00,
2013-08-07 10:21:00,87.3,68.5,29.78,West,281,4.0,14.0,54,0.00,,,0.00,meteohub,2013-08-07 15:21:00,
2013-08-07 10:27:00,87.6,67.8,29.78,SW,227,4.0,16.0,52,0.00,,,0.00,meteohub,2013-08-07 15:27:00,
2013-08-07 10:32:00,88.0,68.2,29.78,SSW,209,5.0,16.0,52,0.00,,,0.00,meteohub,2013-08-07 15:32:00,
2013-08-07 10:37:00,88.2,68.4,29.78,WSW,238,8.0,15.0,52,0.00,,,0.00,meteohub,2013-08-07 15:37:00,
2013-08-07 10:42:00,88.5,68.7,29.78,WSW,244,0.0,15.0,52,0.00,,,0.00,meteohub,2013-08-07 15:42:00,
2013-08-07 10:47:00,89.2,68.7,29.78,WSW,244,3.0,15.0,51,0.00,,,0.00,meteohub,2013-08-07 15:47:00,
2013-08-07 10:52:00,90.0,68.9,29.78,WSW,241,0.0,15.0,50,0.00,,,0.00,meteohub,2013-08-07 15:52:00,
2013-08-07 10:57:00,90.7,68.4,29.78,SW,229,2.0,12.0,48,0.00,,,0.00,meteohub,2013-08-07 15:57:00,
2013-08-07 11:02:00,91.2,68.7,29.78,SSW,213,2.0,12.0,48,0.00,,,0.00,meteohub,2013-08-07 16:02:00,
2013-08-07 11:07:00,91.6,68.5,29.78,SSW,198,0.0,10.0,47,0.00,,,0.00,meteohub,2013-08-07 16:07:00,
2013-08-07 11:12:00,91.8,68.7,29.78,WSW,246,4.0,10.0,47,0.00,,,0.00,meteohub,2013-08-07 16:12:00,
2013-08-07 11:17:00,92.5,68.0,29.78,SW,222,9.0,11.0,45,0.00,,,0.00,meteohub,2013-08-07 16:17:00,
2013-08-07 11:22:00,92.8,68.4,29.78,WSW,240,6.0,11.0,45,0.00,,,0.00,meteohub,2013-08-07 16:22:00,
2013-08-07 11:27:00,92.7,68.9,29.78,SW,236,4.0,11.0,46,0.00,,,0.00,meteohub,2013-08-07 16:27:00,
2013-08-07 11:32:00,93.2,68.0,29.78,SSW,207,4.0,11.0,44,0.00,,,0.00,meteohub,2013-08-07 16:32:00,
2013-08-07 11:37:00,93.7,68.5,29.78,South,184,0.0,10.0,44,0.00,,,0.00,meteohub,2013-08-07 16:37:00,
2013-08-07 11:42:00,94.5,68.5,29.78,SW,227,0.0,10.0,43,0.00,,,0.00,meteohub,2013-08-07 16:42:00,
2013-08-07 11:47:00,94.8,67.5,29.78,SW,232,7.0,8.0,41,0.00,,,0.00,meteohub,2013-08-07 16:47:00,
2013-08-07 11:52:00,94.6,67.3,29.77,SE,142,7.0,11.0,41,0.00,,,0.00,meteohub,2013-08-07 16:52:00,
2013-08-07 11:57:00,95.2,67.8,29.78,SW,223,0.0,11.0,41,0.00,,,0.00,meteohub,2013-08-07 16:57:00,
2013-08-07 12:02:00,95.5,67.3,29.78,SW,235,4.0,11.0,40,0.00,,,0.00,meteohub,2013-08-07 17:02:00,
2013-08-07 12:07:00,95.7,67.5,29.78,SSW,204,3.0,11.0,40,0.00,,,0.00,meteohub,2013-08-07 17:07:00,
2013-08-07 12:12:00,96.4,67.5,29.78,SSW,201,0.0,11.0,39,0.00,,,0.00,meteohub,2013-08-07 17:12:00,
2013-08-07 12:17:00,97.0,67.1,29.77,SW,234,5.0,11.0,38,0.00,,,0.00,meteohub,2013-08-07 17:17:00,
2013-08-07 12:22:00,97.3,66.7,29.77,SSE,151,1.0,8.0,37,0.00,,,0.00,meteohub,2013-08-07 17:22:00,
2013-08-07 12:27:00,97.9,67.1,29.77,SSE,159,0.0,8.0,37,0.00,,,0.00,meteohub,2013-08-07 17:27:00,
2013-08-07 12:32:00,98.2,66.7,29.77,SSW,211,0.0,8.0,36,0.00,,,0.00,meteohub,2013-08-07 17:32:00,
2013-08-07 12:37:00,98.2,65.8,29.76,SW,233,8.0,8.0,35,0.00,,,0.00,meteohub,2013-08-07 17:37:00,
2013-08-07 12:42:00,98.1,66.6,29.76,South,169,4.0,13.0,36,0.00,,,0.00,meteohub,2013-08-07 17:42:00,
2013-08-07 12:47:00,98.4,66.9,29.76,SSW,202,5.0,13.0,36,0.00,,,0.00,meteohub,2013-08-07 17:47:00,
2013-08-07 12:52:00,99.0,66.6,29.76,SE,128,0.0,14.0,35,0.00,,,0.00,meteohub,2013-08-07 17:52:00,
2013-08-07 12:57:00,99.1,66.7,29.75,SSW,194,0.0,14.0,35,0.00,,,0.00,meteohub,2013-08-07 17:57:00,
2013-08-07 13:02:00,99.1,66.7,29.75,SSW,196,5.0,14.0,35,0.00,,,0.00,meteohub,2013-08-07 18:02:00,
2013-08-07 13:07:00,99.7,66.4,29.75,SW,228,0.0,13.0,34,0.00,,,0.00,meteohub,2013-08-07 18:07:00,
2013-08-07 13:12:00,100.0,66.6,29.75,SSW,204,0.0,7.0,34,0.00,,,0.00,meteohub,2013-08-07 18:12:00,
2013-08-07 13:17:00,100.2,65.8,29.75,SSW,202,1.0,9.0,33,0.00,,,0.00,meteohub,2013-08-07 18:17:00,
2013-08-07 13:22:00,100.2,65.8,29.75,SW,230,2.0,11.0,33,0.00,,,0.00,meteohub,2013-08-07 18:22:00,
2013-08-07 13:27:00,100.6,65.3,29.75,South,186,4.0,11.0,32,0.00,,,0.00,meteohub,2013-08-07 18:27:00,
2013-08-07 13:32:00,100.9,65.7,29.75,SSW,205,1.0,11.0,32,0.00,,,0.00,meteohub,2013-08-07 18:32:00,
2013-08-07 13:37:00,100.9,64.8,29.74,South,186,0.0,13.0,31,0.00,,,0.00,meteohub,2013-08-07 18:37:00,
2013-08-07 13:42:00,101.1,64.9,29.74,WSW,254,3.0,13.0,31,0.00,,,0.00,meteohub,2013-08-07 18:42:00,
2013-08-07 13:47:00,101.7,65.3,29.74,SE,144,0.0,13.0,31,0.00,,,0.00,meteohub,2013-08-07 18:47:00,
2013-08-07 13:52:00,101.8,64.6,29.74,SW,236,0.0,12.0,30,0.00,,,0.00,meteohub,2013-08-07 18:52:00,
2013-08-07 13:57:00,102.2,65.8,29.74,South,171,0.0,12.0,31,0.00,,,0.00,meteohub,2013-08-07 18:57:00,
2013-08-07 14:02:00,102.6,65.1,29.73,SW,234,5.0,12.0,30,0.00,,,0.00,meteohub,2013-08-07 19:02:00,
2013-08-07 14:07:00,102.4,64.0,29.73,WSW,246,6.0,-999.0,29,0.00,,,0.00,meteohub,2013-08-07 19:07:00,
2013-08-07 14:12:00,102.4,64.0,29.73,SW,227,0.0,8.0,29,0.00,,,0.00,meteohub,2013-08-07 19:12:00,
2013-08-07 14:17:00,102.7,63.3,29.73,SW,234,6.0,8.0,28,0.00,,,0.00,meteohub,2013-08-07 19:17:00,
2013-08-07 14:22:00,102.9,63.5,29.73,WSW,244,0.0,13.0,28,0.00,,,0.00,meteohub,2013-08-07 19:22:00,
2013-08-07 14:27:00,103.1,64.8,29.73,South,169,0.0,13.0,29,0.00,,,0.00,meteohub,2013-08-07 19:27:00,
2013-08-07 14:32:00,103.5,64.0,29.73,SSE,148,0.0,13.0,28,0.00,,,0.00,meteohub,2013-08-07 19:32:00,
2013-08-07 14:37:00,103.6,65.1,29.73,South,182,0.0,13.0,29,0.00,,,0.00,meteohub,2013-08-07 19:37:00,
2013-08-07 14:42:00,104.2,65.7,29.72,ESE,107,4.0,13.0,29,0.00,,,0.00,meteohub,2013-08-07 19:42:00,
2013-08-07 14:47:00,104.2,64.6,29.72,ESE,120,4.0,11.0,28,0.00,,,0.00,meteohub,2013-08-07 19:47:00,
2013-08-07 14:52:00,104.2,63.5,29.72,SSW,212,2.0,11.0,27,0.00,,,0.00,meteohub,2013-08-07 19:52:00,
2013-08-07 14:57:00,104.7,64.0,29.72,SSW,212,0.0,11.0,27,0.00,,,0.00,meteohub,2013-08-07 19:57:00,
2013-08-07 15:02:00,105.1,63.3,29.71,South,188,4.0,11.0,26,0.00,,,0.00,meteohub,2013-08-07 20:02:00,
2013-08-07 15:07:00,104.9,63.1,29.71,SW,231,0.0,8.0,26,0.00,,,0.00,meteohub,2013-08-07 20:07:00,
2013-08-07 15:12:00,104.7,63.0,29.71,SW,236,0.0,8.0,26,0.00,,,0.00,meteohub,2013-08-07 20:12:00,
2013-08-07 15:17:00,104.7,64.0,29.70,South,188,0.0,8.0,27,0.00,,,0.00,meteohub,2013-08-07 20:17:00,
2013-08-07 15:22:00,104.9,63.1,29.70,SW,225,4.0,9.0,26,0.00,,,0.00,meteohub,2013-08-07 20:22:00,
2013-08-07 15:27:00,104.7,63.0,29.70,South,182,0.0,11.0,26,0.00,,,0.00,meteohub,2013-08-07 20:27:00,
2013-08-07 15:32:00,104.7,63.0,29.69,South,191,1.0,11.0,26,0.00,,,0.00,meteohub,2013-08-07 20:32:00,
2013-08-07 15:37:00,104.7,63.0,29.69,South,190,1.0,11.0,26,0.00,,,0.00,meteohub,2013-08-07 20:37:00,
2013-08-07 15:42:00,104.7,63.0,29.69,SW,230,3.0,11.0,26,0.00,,,0.00,meteohub,2013-08-07 20:42:00,
2013-08-07 15:47:00,104.7,63.0,29.68,SSE,153,0.0,11.0,26,0.00,,,0.00,meteohub,2013-08-07 20:47:00,
2013-08-07 15:52:00,105.1,63.3,29.68,SSE,165,8.0,10.0,26,0.00,,,0.00,meteohub,2013-08-07 20:52:00,
2013-08-07 15:57:00,105.1,62.1,29.68,SSW,201,1.0,10.0,25,0.00,,,0.00,meteohub,2013-08-07 20:57:00,
2013-08-07 16:02:00,105.3,62.2,29.68,SSE,166,2.0,10.0,25,0.00,,,0.00,meteohub,2013-08-07 21:02:00,
2013-08-07 16:07:00,105.3,62.2,29.68,SW,223,0.0,10.0,25,0.00,,,0.00,meteohub,2013-08-07 21:07:00,
2013-08-07 16:12:00,105.6,60.3,29.68,SW,221,5.0,11.0,23,0.00,,,0.00,meteohub,2013-08-07 21:12:00,
2013-08-07 16:17:00,105.4,62.4,29.68,SE,146,8.0,11.0,25,0.00,,,0.00,meteohub,2013-08-07 21:17:00,
2013-08-07 16:22:00,105.3,62.2,29.68,SSW,203,3.0,12.0,25,0.00,,,0.00,meteohub,2013-08-07 21:22:00,
2013-08-07 16:27:00,105.3,62.2,29.67,SW,236,1.0,12.0,25,0.00,,,0.00,meteohub,2013-08-07 21:27:00,
2013-08-07 16:32:00,105.4,63.5,29.67,SE,128,2.0,12.0,26,0.00,,,0.00,meteohub,2013-08-07 21:32:00,
2013-08-07 16:37:00,105.6,62.6,29.67,ESE,121,1.0,14.0,25,0.00,,,0.00,meteohub,2013-08-07 21:37:00,
2013-08-07 16:42:00,105.6,61.3,29.66,SW,221,2.0,14.0,24,0.00,,,0.00,meteohub,2013-08-07 21:42:00,
2013-08-07 16:47:00,105.3,62.2,29.66,South,182,1.0,14.0,25,0.00,,,0.00,meteohub,2013-08-07 21:47:00,
2013-08-07 16:52:00,105.3,62.2,29.66,SE,136,4.0,10.0,25,0.00,,,0.00,meteohub,2013-08-07 21:52:00,
2013-08-07 16:57:00,105.3,62.2,29.66,South,176,2.0,10.0,25,0.00,,,0.00,meteohub,2013-08-07 21:57:00,
2013-08-07 17:02:00,105.6,61.3,29.66,South,169,4.0,10.0,24,0.00,,,0.00,meteohub,2013-08-07 22:02:00,
2013-08-07 17:07:00,105.6,62.6,29.65,SE,140,2.0,10.0,25,0.00,,,0.00,meteohub,2013-08-07 22:07:00,
2013-08-07 17:12:00,106.0,63.0,29.65,SSW,206,0.0,10.0,25,0.00,,,0.00,meteohub,2013-08-07 22:12:00,
2013-08-07 17:17:00,105.8,61.5,29.65,SE,142,5.0,10.0,24,0.00,,,0.00,meteohub,2013-08-07 22:17:00,
2013-08-07 17:22:00,105.4,62.4,29.65,South,191,0.0,17.0,25,0.00,,,0.00,meteohub,2013-08-07 22:22:00,
2013-08-07 17:27:00,106.0,61.7,29.65,SSE,160,2.0,17.0,24,0.00,,,0.00,meteohub,2013-08-07 22:27:00,
2013-08-07 17:32:00,106.3,62.1,29.65,South,179,2.0,11.0,24,0.00,,,0.00,meteohub,2013-08-07 22:32:00,
2013-08-07 17:37:00,106.3,62.1,29.65,South,181,0.0,11.0,24,0.00,,,0.00,meteohub,2013-08-07 22:37:00,
2013-08-07 17:42:00,106.5,62.2,29.64,SW,234,0.0,9.0,24,0.00,,,0.00,meteohub,2013-08-07 22:42:00,
2013-08-07 17:47:00,106.3,62.1,29.64,SW,223,2.0,8.0,24,0.00,,,0.00,meteohub,2013-08-07 22:47:00,
2013-08-07 17:52:00,106.2,61.9,29.64,South,190,5.0,8.0,24,0.00,,,0.00,meteohub,2013-08-07 22:52:00,
2013-08-07 17:57:00,106.0,61.7,29.64,SE,130,1.0,12.0,24,0.00,,,0.00,meteohub,2013-08-07 22:57:00,
2013-08-07 18:02:00,106.0,61.7,29.64,SW,232,0.0,12.0,24,0.00,,,0.00,meteohub,2013-08-07 23:02:00,
2013-08-07 18:07:00,106.0,61.7,29.63,SSE,160,1.0,10.0,24,0.00,,,0.00,meteohub,2013-08-07 23:07:00,
2013-08-07 18:12:00,106.0,61.7,29.63,SSW,199,2.0,10.0,24,0.00,,,0.00,meteohub,2013-08-07 23:12:00,
2013-08-07 18:17:00,105.8,61.5,29.63,SE,128,7.0,11.0,24,0.00,,,0.00,meteohub,2013-08-07 23:17:00,
2013-08-07 18:22:00,105.6,61.3,29.63,SW,232,0.0,11.0,24,0.00,,,0.00,meteohub,2013-08-07 23:22:00,
2013-08-07 18:27:00,105.4,62.4,29.63,SSW,192,0.0,11.0,25,0.00,,,0.00,meteohub,2013-08-07 23:27:00,
2013-08-07 18:32:00,105.1,63.3,29.63,SSE,165,12.0,12.0,26,0.00,,,0.00,meteohub,2013-08-07 23:32:00,
2013-08-07 18:37:00,104.9,63.1,29.63,SE,138,4.0,11.0,26,0.00,,,0.00,meteohub,2013-08-07 23:37:00,
2013-08-07 18:42:00,104.5,62.8,29.62,ESE,118,8.0,12.0,26,0.00,,,0.00,meteohub,2013-08-07 23:42:00,
2013-08-07 18:47:00,104.4,62.6,29.63,SSE,147,1.0,12.0,26,0.00,,,0.00,meteohub,2013-08-07 23:47:00,
2013-08-07 18:52:00,104.0,62.2,29.62,SSW,192,5.0,13.0,26,0.00,,,0.00,meteohub,2013-08-07 23:52:00,
2013-08-07 18:57:00,103.8,62.2,29.62,SE,130,8.0,13.0,26,0.00,,,0.00,meteohub,2013-08-07 23:57:00,
2013-08-07 19:02:00,103.6,62.1,29.62,SSE,152,2.0,13.0,26,0.00,,,0.00,meteohub,2013-08-08 00:02:00,
2013-08-07 19:07:00,103.5,63.0,29.62,SSE,161,0.0,11.0,27,0.00,,,0.00,meteohub,2013-08-08 00:07:00,
2013-08-07 19:12:00,103.3,62.8,29.62,SSE,153,4.0,11.0,27,0.00,,,0.00,meteohub,2013-08-08 00:12:00,
2013-08-07 19:17:00,103.1,61.5,29.62,SSE,165,5.0,11.0,26,0.00,,,0.00,meteohub,2013-08-08 00:17:00,
2013-08-07 19:23:00,102.9,62.4,29.62,SE,131,5.0,13.0,27,0.00,,,0.00,meteohub,2013-08-08 00:23:00,
2013-08-07 19:28:00,102.7,61.3,29.62,SSE,161,2.0,13.0,26,0.00,,,0.00,meteohub,2013-08-08 00:28:00,
2013-08-07 19:33:00,102.6,61.2,29.62,SSE,163,2.0,13.0,26,0.00,,,0.00,meteohub,2013-08-08 00:33:00,
2013-08-07 19:38:00,102.2,60.8,29.63,SSE,161,7.0,14.0,26,0.00,,,0.00,meteohub,2013-08-08 00:38:00,
2013-08-07 19:43:00,101.7,60.4,29.63,SSE,158,8.0,15.0,26,0.00,,,0.00,meteohub,2013-08-08 00:43:00,
2013-08-07 19:48:00,101.1,61.0,29.63,South,184,1.0,15.0,27,0.00,,,0.00,meteohub,2013-08-08 00:48:00,
2013-08-07 19:53:00,100.8,60.6,29.63,SSE,159,0.0,15.0,27,0.00,,,0.00,meteohub,2013-08-08 00:53:00,
2013-08-07 19:58:00,100.4,60.4,29.63,SSW,197,0.0,14.0,27,0.00,,,0.00,meteohub,2013-08-08 00:58:00,
2013-08-07 20:03:00,100.0,60.1,29.63,SE,134,2.0,12.0,27,0.00,,,0.00,meteohub,2013-08-08 01:03:00,
2013-08-07 20:08:00,99.9,61.0,29.63,SSE,155,1.0,9.0,28,0.00,,,0.00,meteohub,2013-08-08 01:08:00,
2013-08-07 20:13:00,99.7,60.8,29.64,SE,131,0.0,9.0,28,0.00,,,0.00,meteohub,2013-08-08 01:13:00,
2013-08-07 20:18:00,99.3,60.4,29.64,SE,131,0.0,9.0,28,0.00,,,0.00,meteohub,2013-08-08 01:18:00,
2013-08-07 20:23:00,99.0,61.2,29.65,SSE,150,0.0,6.0,29,0.00,,,0.00,meteohub,2013-08-08 01:23:00,
2013-08-07 20:28:00,98.8,61.0,29.67,WSW,244,10.0,10.0,29,0.00,,,0.00,meteohub,2013-08-08 01:28:00,
2013-08-07 20:33:00,97.2,62.4,29.68,WNW,292,14.0,20.0,32,0.00,,,0.00,meteohub,2013-08-08 01:33:00,
2013-08-07 20:38:00,93.7,62.8,29.68,WSW,237,12.0,28.0,36,0.00,,,0.00,meteohub,2013-08-08 01:38:00,
2013-08-07 20:43:00,91.8,63.3,29.70,WSW,248,15.0,31.0,39,0.00,,,0.00,meteohub,2013-08-08 01:43:00,
2013-08-07 20:48:00,90.3,63.5,29.70,West,259,27.0,41.0,41,0.00,,,0.00,meteohub,2013-08-08 01:48:00,
2013-08-07 20:53:00,89.2,63.1,29.70,West,259,11.0,41.0,42,0.00,,,0.00,meteohub,2013-08-08 01:53:00,
2013-08-07 20:58:00,88.5,63.9,29.70,West,281,14.0,41.0,44,0.00,,,0.00,meteohub,2013-08-08 01:58:00,
2013-08-07 21:03:00,86.7,65.8,29.71,WNW,284,19.0,29.0,50,0.01,,,0.00,meteohub,2013-08-08 02:03:00,
2013-08-07 21:08:00,85.5,65.8,29.72,WSW,256,21.0,31.0,52,0.01,,,0.01,meteohub,2013-08-08 02:08:00,
2013-08-07 21:13:00,84.4,65.8,29.73,WSW,254,13.0,31.0,54,0.01,,,0.01,meteohub,2013-08-08 02:13:00,
2013-08-07 21:18:00,83.7,66.4,29.73,WSW,250,3.0,31.0,56,0.01,,,0.01,meteohub,2013-08-08 02:18:00,
2013-08-07 21:23:00,83.1,66.7,29.73,West,278,9.0,27.0,58,0.01,,,0.01,meteohub,2013-08-08 02:23:00,
2013-08-07 21:28:00,83.1,66.7,29.74,SW,221,10.0,22.0,58,0.01,,,0.01,meteohub,2013-08-08 02:28:00,
2013-08-07 21:33:00,82.9,66.6,29.77,SW,219,5.0,19.0,58,0.01,,,0.01,meteohub,2013-08-08 02:33:00,
2013-08-07 21:38:00,83.1,66.7,29.78,South,170,5.0,19.0,58,0.01,,,0.01,meteohub,2013-08-08 02:38:00,
2013-08-07 21:43:00,82.9,66.6,29.79,SSW,208,0.0,13.0,58,0.01,,,0.01,meteohub,2013-08-08 02:43:00,
2013-08-07 21:48:00,82.6,69.1,29.79,SW,219,0.0,11.0,64,0.03,,,0.01,meteohub,2013-08-08 02:48:00,
2013-08-07 21:53:00,81.0,68.9,29.79,West,267,2.0,11.0,67,0.07,,,0.07,meteohub,2013-08-08 02:53:00,
2013-08-07 21:58:00,79.7,69.8,29.78,WSW,248,2.0,12.0,72,0.11,,,0.11,meteohub,2013-08-08 02:58:00,
2013-08-07 22:03:00,78.6,70.0,29.80,WSW,241,6.0,12.0,75,0.11,,,0.12,meteohub,2013-08-08 03:03:00,
2013-08-07 22:08:00,78.1,70.0,29.80,West,259,0.0,11.0,76,0.14,,,0.14,meteohub,2013-08-08 03:08:00,
2013-08-07 22:13:00,77.9,71.2,29.80,West,259,0.0,11.0,80,0.14,,,0.15,meteohub,2013-08-08 03:13:00,
2013-08-07 22:18:00,77.4,71.1,29.80,NNW,346,2.0,7.0,81,0.14,,,0.15,meteohub,2013-08-08 03:18:00,
2013-08-07 22:23:00,76.8,71.2,29.79,North,5,0.0,5.0,83,0.14,,,0.15,meteohub,2013-08-08 03:23:00,
2013-08-07 22:28:00,76.6,70.7,29.78,North,350,0.0,7.0,82,0.15,,,0.16,meteohub,2013-08-08 03:28:00,
2013-08-07 22:34:00,76.6,70.0,29.79,NNW,347,0.0,7.0,80,0.15,,,0.16,meteohub,2013-08-08 03:34:00,
2013-08-07 22:39:00,76.8,70.5,29.80,NNW,327,0.0,6.0,81,0.15,,,0.16,meteohub,2013-08-08 03:39:00,
2013-08-07 22:44:00,76.8,70.5,29.80,NNW,327,0.0,6.0,81,0.16,,,0.17,meteohub,2013-08-08 03:44:00,
2013-08-07 22:49:00,76.5,70.5,29.80,NNW,327,0.0,6.0,82,0.14,,,0.17,meteohub,2013-08-08 03:49:00,
2013-08-07 22:54:00,76.6,71.1,29.80,NNW,327,0.0,0.0,83,0.09,,,0.18,meteohub,2013-08-08 03:54:00,
2013-08-07 22:59:00,76.6,70.7,29.80,NNW,327,0.0,0.0,82,0.08,,,0.19,meteohub,2013-08-08 03:59:00,
2013-08-07 23:01:00,76.6,71.1,29.80,NNW,327,0.0,0.0,83,0.06,,,0.20,meteohub,2013-08-08 04:01:00,
2013-08-07 23:06:00,76.3,71.1,29.79,NE,44,0.0,5.0,84,0.06,,,0.21,meteohub,2013-08-08 04:06:00,
2013-08-07 23:11:00,75.9,71.4,29.78,ENE,65,0.0,7.0,86,0.06,,,0.21,meteohub,2013-08-08 04:11:00,
2013-08-07 23:16:00,75.7,71.2,29.77,ENE,69,3.0,7.0,86,0.07,,,0.22,meteohub,2013-08-08 04:16:00,
2013-08-07 23:21:00,75.6,71.1,29.78,NE,43,0.0,13.0,86,0.07,,,0.22,meteohub,2013-08-08 04:21:00,
2013-08-07 23:26:00,75.6,70.7,29.77,NE,48,6.0,13.0,85,0.06,,,0.22,meteohub,2013-08-08 04:26:00,
2013-08-07 23:31:00,75.6,70.7,29.77,NNE,33,0.0,13.0,85,0.06,,,0.22,meteohub,2013-08-08 04:31:00,
2013-08-07 23:36:00,75.6,71.4,29.77,NE,36,0.0,11.0,87,0.06,,,0.22,meteohub,2013-08-08 04:36:00,
2013-08-07 23:41:00,75.6,71.1,29.75,NE,46,0.0,11.0,86,0.05,,,0.22,meteohub,2013-08-08 04:41:00,
2013-08-07 23:47:00,75.4,70.9,29.75,NE,36,0.0,4.0,86,0.04,,,0.22,meteohub,2013-08-08 04:47:00,
2013-08-07 23:52:00,75.6,71.1,29.75,NE,44,1.0,4.0,86,0.03,,,0.22,meteohub,2013-08-08 04:52:00,
2013-08-07 23:57:00,75.6,70.7,29.74,NE,47,6.0,6.0,85,0.02,,,0.22,meteohub,2013-08-08 04:57:00,